Weather History for North Platte, NE

Change the Weather History Date:

Monday, June 23, 2014

  Actual Average Record
Temperature  
Mean Temperature 71 °F 70 °F  
Max Temperature 80 °F 85 °F 104 °F (1954)
Min Temperature 61 °F 56 °F 40 °F (1989)
Degree Days  
Heating Degree Days 0 1  
Month to date heating degree days 39 48  
Since 1 June heating degree days 39 48  
Since 1 July heating degree days 6869 6683  
Cooling Degree Days 6 6  
Month to date cooling degree days 88 88  
Year to date cooling degree days 137 116  
Since 1 June cooling degree days 88 88  
Growing Degree Days 20 (Base 50)    
Moisture  
Dew Point 57 °F    
Average Humidity 65    
Maximum Humidity 87    
Minimum Humidity 42    
Precipitation  
Precipitation 0.09 in 0.11 in 2.31 in (1966)
Month to date precipitation 7.38 2.71  
Year to date precipitation 11.67 10.15  
Snow  
Snow 0.00 in 0.00 in 0.00 in ()
Month to date snowfall T 0.0  
Since 1 June snowfall T 0.0  
Since 1 July snowfall 29.8 28.5  
Snow Depth 0.00 in    
Sea Level Pressure  
Sea Level Pressure 29.98 in    
Wind  
Wind Speed 5 mph (ENE)    
Max Wind Speed 17 mph    
Max Gust Speed 21 mph    
Visibility 10 miles    
Events Rain    
T = Trace of Precipitation, MM = Missing Value Source: NWS Daily Summary

Daily Weather History Graph

Daily Weather History Graph

Search for Another Location

Airport:

Trip Planner

Search our weather history database for the weather conditions in past years. The results will help you decide how hot, cold, wet, or windy it might be!

Date:

Astronomy

Jun. 23, 2014 Rise Set
Actual Time 6:10 AM CDT 9:19 PM CDT
Civil Twilight 5:37 AM CDT 9:52 PM CDT
Nautical Twilight 4:53 AM CDT 10:35 PM CDT
Astronomical Twilight 4:02 AM CDT 11:27 PM CDT
Moon 3:39 AM CDT (6/23) 6:00 PM CDT (6/23)
Length of Visible Light 16h 15m
Length of Day
15h 08m
Waning Crescent, 13% of the Moon is Illuminated
Jun 23
Waning Crescent
Jun 27
New
Jul 5
First Quarter
Jul 12
Full
Jul 18
Last Quarter

Hourly Weather History & Observations

Time (CDT) Temp. Heat Index Dew Point Humidity Pressure Visibility Wind Dir Wind Speed Gust Speed Precip Events Conditions
12:53 AM 66.9 °F - 59.0 °F 76% 29.92 in 10.0 mi NNE 11.5 mph - N/A   Mostly Cloudy
1:53 AM 66.0 °F - 55.0 °F 68% 29.91 in 10.0 mi NE 12.7 mph - N/A   Mostly Cloudy
2:53 AM 64.9 °F - 55.9 °F 73% 29.94 in 10.0 mi NNE 11.5 mph - N/A   Overcast
3:53 AM 62.1 °F - 57.0 °F 84% 29.94 in 10.0 mi South 4.6 mph - 0.09 in Rain Light Rain
4:15 AM 63.0 °F - 57.0 °F 81% 30.03 in 10.0 mi SSW 4.6 mph - 0.00 in   Mostly Cloudy
4:53 AM 63.0 °F - 57.0 °F 81% 29.95 in 10.0 mi South 3.5 mph - 0.00 in   Overcast
5:19 AM 63.0 °F - 57.9 °F 84% 30.02 in 10.0 mi Calm Calm - N/A   Mostly Cloudy
5:53 AM 62.1 °F - 57.9 °F 86% 29.94 in 10.0 mi NNE 6.9 mph - 0.00 in   Scattered Clouds
6:53 AM 62.1 °F - 55.9 °F 80% 29.96 in 10.0 mi NNE 5.8 mph - N/A   Clear
7:53 AM 62.1 °F - 57.9 °F 86% 29.99 in 10.0 mi WNW 4.6 mph - N/A   Clear
8:53 AM 64.9 °F - 55.9 °F 73% 30.00 in 10.0 mi North 4.6 mph - N/A   Partly Cloudy
9:53 AM 69.1 °F - 55.0 °F 61% 30.00 in 10.0 mi NE 8.1 mph - N/A   Scattered Clouds
10:53 AM 72.0 °F - 55.0 °F 55% 29.99 in 10.0 mi NE 9.2 mph - N/A   Clear
11:53 AM 75.0 °F - 55.9 °F 51% 30.00 in 10.0 mi ENE 4.6 mph - N/A   Clear
12:53 PM 77.0 °F - 55.0 °F 47% 29.99 in 10.0 mi North - - N/A   Scattered Clouds
1:53 PM 77.0 °F - 55.0 °F 47% 29.99 in 10.0 mi NE 6.9 mph - N/A   Scattered Clouds
2:53 PM 79.0 °F - 55.0 °F 44% 29.99 in 10.0 mi Variable 4.6 mph - N/A   Mostly Cloudy
3:53 PM 77.0 °F - 55.4 °F 47% 30.05 in 10.0 mi SSE 4.6 mph - N/A   Mostly Cloudy
4:53 PM 78.8 °F - 55.4 °F 44% 30.04 in 10.0 mi Calm Calm - N/A   Overcast
5:53 PM 80.1 °F 80.2 °F 55.9 °F 43% 29.96 in 10.0 mi East 5.8 mph - N/A   Partly Cloudy
6:53 PM 78.1 °F - 55.9 °F 46% 29.96 in 10.0 mi ENE 8.1 mph - N/A   Partly Cloudy
7:53 PM 75.9 °F - 57.0 °F 52% 29.96 in 10.0 mi ESE 4.6 mph - N/A   Scattered Clouds
8:53 PM 70.0 °F - 59.0 °F 68% 29.99 in 10.0 mi SSE 5.8 mph - N/A   Partly Cloudy
9:53 PM 68.0 °F - 60.1 °F 76% 30.01 in 10.0 mi SE 4.6 mph - N/A   Partly Cloudy
10:53 PM 64.0 °F - 60.1 °F 87% 30.03 in 10.0 mi Calm Calm - N/A   Clear
11:53 PM 64.0 °F - 61.0 °F 90% 30.02 in 10.0 mi Calm Calm - N/A   Clear